Location: Curupao
(10.4996°N, 66.6442°W)
Time: 21:14:06
(UTC+00:00)

MOS 1-B - Pass Details

Date: 23 May 2024
Orbit: 904 x 912 km, 99.3° (Epoch: 25 June)

Event Time Altitude Azimuth Distance (km) Brightness Sun altitude
Exits shadow 00:59:19 73° 290° (WNW) 944 4.4 -31.0°
Drops below altitude 10° 01:04:44 10° 343° (NNW) 2,581 7.3 -32.1°
Sets 01:07:09 0° 344° (NNW) 3,521 8.1 -32.6°
